Overview Statistics Trail Chart Weather Telemetry Raw packets
 

This is the latest recevied weather packets stored in our database for station/object KG5MMT-15. If no packets are shown the sender has not sent any weather packets the latest 10 day(s).

<< 6 7 8 9 10 11 12 >>
Time Temp. Humidity Pressure Rain* Wind** Luminosity Snow
1788651159 24.44° C 44% 0 hPa 0 mm - - -
1788650859 23.89° C 49% 0 hPa 0 mm - - -
1788650559 23.89° C 48% 0 hPa 0 mm - - -
1788650259 23.89° C 48% 0 hPa 0 mm - - -
1788649959 23.89° C 48% 0 hPa 0 mm - - -
1788649659 23.89° C 46% 0 hPa 0 mm - - -
1788649359 23.33° C 51% 0 hPa 0 mm - - -
1788649077 23.33° C 52% 0 hPa 0 mm - - -
1788648759 22.78° C 51% 0 hPa 0 mm - - -
1788648459 23.89° C 53% 0 hPa 0 mm - - -
1788648159 24.44° C 48% 0 hPa 0 mm - - -
1788647859 24.44° C 45% 0 hPa 0 mm - - -
1788647559 24.44° C 44% 0 hPa 0 mm - - -
1788647259 25° C 41% 0 hPa 0 mm - - -
1788646959 25.56° C 38% 0 hPa 0 mm - - -
1788646659 26.11° C 36% 0 hPa 0 mm - - -
1788646359 26.11° C 37% 0 hPa 0 mm - - -
1788646059 26.11° C 36% 0 hPa 0 mm - - -
1788645759 26.11° C 36% 0 hPa 0 mm - - -
1788645459 26.11° C 37% 0 hPa 0 mm - - -
1788645159 26.11° C 36% 0 hPa 0 mm - - -
1788644859 26.67° C 35% 0 hPa 0 mm - - -
1788644559 26.67° C 35% 0 hPa 0 mm - - -
1788644259 26.67° C 35% 0 hPa 0 mm - - -
1788643959 26.67° C 34% 0 hPa 0 mm - - -

* Rain latest hour (hover to see other rain measurements)
** Current wind speed in m/s (hover to see current wind gust speed)